Voltar ao catálogo

ONEWEB-0229

AtivoComunicaçõesPO
NORAD 48779·PAYLOAD·🇬🇧 United Kingdom

Lançado May 28, 2021 de Vostochny Cosmodrome

Loading…

Próximas Passagens (próximas 24 horas)

TLE

AtualizadoSource: CelesTrak SupGP

Época: Sep 14, 2026, 17:52 UTC

1 48779C 21045N   26257.74493473  .00001767  00000+0  46997-2 0  2574
2 48779  87.8983 241.3377 0002141  84.9911 330.0663 13.15541728    16

Acompanhe ONEWEB-0229 em tempo real com AllMySat

Download on the App Store